Welcome to the New NWS' Forecast!
Most changes are behind the scenes, but click here for differences you might notice.

Regional Weather Roundup (RWR)

Issued by Gray - Portland, ME (GYX)

                            
000
ASUS41 KGYX 170705
RWRGYX
WEATHER ROUNDUP FOR MAINE AND NEW HAMPSHIRE
NATIONAL WEATHER SERVICE GRAY ME
300 AM EDT WED OCT 17 2018

MEZ002-005-006-010-012-015-018-020-021-024-026-027-029-170800-
MAINE
  
CITY           SKY/WX    TMP DP  RH WIND       PRES   REMARKS
PORTLAND       FAIR      41  33  73 CALM      29.93F                  
SANFORD        FAIR      28  27  96 CALM      29.94F                  
BAR HARBOR     FAIR      37  34  89 CALM      29.92F                  
WISCASSET      FAIR      37  36  96 CALM      29.93F                  
ROCKLAND       FAIR      37  35  92 CALM      29.92F                  
FRYEBURG       FAIR      33  31  92 CALM      29.90F                  
LEWISTONAUBURN FAIR      33  32  96 CALM      29.91F                  
AUGUSTA        FAIR      37  31  78 S5        29.90F                  
WATERVILLE     FAIR      35  31  85 SW7       29.87F                  
BANGOR         FAIR      37  30  75 S3        29.89F                  
GREENVILLE       N/A     33  27  78 SW3       29.80F                  
MILLINOCKET    FAIR      32  27  81 CALM      29.86F                  
HOULTON        NOT AVBL                                               
PRESQUE ISLE   CLOUDY    34  27  75 S6        29.81F                  
FRENCHVILLE    CLOUDY    34  25  69 S8        29.74F                  
CARIBOU        CLOUDY    34  27  75 S7        29.78F                  
$$

NHZ002-005-008-009-011-012-014-170800-
NEW HAMPSHIRE
  
CITY           SKY/WX    TMP DP  RH WIND       PRES   REMARKS
PORTSMOUTH     PTCLDY    40  35  83 SW5       29.93F                  
ROCHESTER      FAIR      38  34  85 CALM      29.93F                  
NASHUA         FAIR      35  35 100 CALM      29.96F                  
MANCHESTER     FAIR      38  35  89 S3        29.94F                  
CONCORD        CLOUDY    33  31  92 CALM      29.94F                  
PLYMOUTH       FAIR      32  31  98 CALM      29.92F                  
BERLIN         FAIR      28  26  92 CALM      29.86F                  
WHITEFIELD     MOCLDY    31  28  89 CALM      29.87F                  
JAFFREY        FAIR      32  32 100 CALM      29.94F                  
KEENE          FAIR      31  31 100 CALM      29.95F                  
LEBANON        MOCLDY    41  32  70 CALM      29.90F                  
MT WASHINGTON  FOG       21  21 100 W43         N/A  VSB 0   WCI   0  
$$

VTZ005-007-008-170800-
VERMONT
  
CITY           SKY/WX    TMP DP  RH WIND       PRES   REMARKS
ST JOHNSBURY     N/A     33  31  92 MISG      29.86F                  
MONTPELIER     FAIR      43  33  68 S7        29.88F                  
BURLINGTON     CLOUDY    47  33  58 S10       29.85F                  
$$

MAZ007-012-024-CTZ003-RIZ002-NYZ038-NYZ072-170800-
SOUTHERN NEW ENGLAND AND NY
  
CITY           SKY/WX    TMP DP  RH WIND       PRES   REMARKS
BOSTON         FAIR      45  37  73 SW9       29.98F                  
WORCESTER      FAIR      38  34  85 W9        29.95F                  
NANTUCKET      MOCLDY    50  38  63 NW3       30.01F                  
PROVIDENCE     FAIR      43  36  76 W7        30.00F                  
HARTFORD       FAIR      39  36  89 S7        29.97F                  
ALBANY         MOCLDY    42  35  76 S8        29.96F                  
NEW YORK CITY  MOCLDY    53  36  52 SW8       30.03F                  
$$

ANZ081-ANZ082-ANZ150-NHZ014-MEZ023>029-170800-
COASTAL MARINE OBSERVATIONS
  
STATION/POSITION TIME  TEMP    WIND        PRES    WAVE
                       AIR SEA DIR/SP/G            HT/PER
                 (UTC) (F)     (DEG/KT/KT) (MB)    (FT/S)
MOUNT DESERT ROC 0700   49     160/  7/  8 1013.4F
MATINICUS ROCK   0600   48     190/  7/  8 1013.5F
ISLE OF SHOALS   0600   49     240/ 15/ 16 1014.0F
JEFFREYS LEDGE   0606      57                N/A     3/ 4
$$

.............KEY..............
   WCI - WIND CHILL
   TC  - TEMPERATURE IN CELSIUS
   VSB - VISIBILITY IN MILES
   HX  - HEAT INDEX
   FAIR- INDICATES FEW OR NO CLOUDS BELOW 12,000 FT, WITH NO 
         SIGNIFICANT WEATHER AND/OR OBSTRUCTIONS TO VISIBILITY.